Tracking 30995 objects as of 5-Jul-2025
HD Live streaming from Space Station
objects crossing your sky now

CZ-2D R/B

Track CZ-2D R/B now!
10-day predictions


NORAD ID: 54641
Int'l Code: 2022-165B
Perigee: 651.4 km
Apogee: 697.2 km
Inclination: 98.1 °
Period: 98.1 minutes
Semi major axis: 7045 km
RCS: Unknown
Launch date: December 8, 2022
Source: People's Republic of China (PRC)
Launch site: Taiyaun Space Center, China (TSC)

Note: This is a ROCKET BODY
Your satellite tracking list
Your tracking list is empty




NASA's NSSDC Master Catalog

Two Line Element Set (TLE):
1 54641U 22165B   25186.44389990  .00000442  00000-0  85213-4 0  9997
2 54641  98.1191 126.0272 0032497 209.3335 150.6046 14.68079492137723
Source of the keplerian elements: McCants